Hourly Data Report for June 22, 2021

CARIBOU POINT (AUT)
NOVA SCOTIA
Current Station Operator: ECCC - MSC

45°46'00.000" N
62°41'00.000" W
2.40 m
8200774
71415
WBK

Download Data

Hourly Data (June 2021)
Hourly Data Report for June 22, 2021
TIME
LST
Temp Definition
°C
Dew Point Definition
°C
Rel Hum Definition
%
Precip. Amount Definition
mm

Wind Dir Definition
10's deg

Wind Spd Definition
km/h
Visibility Definition
km
Stn Press Definition
kPa
Hmdx Definition


Wind Chill Definition


Weather Definition


00:00 19.5 18.1 92 0.0 19 21   100.67     LegendNANA
01:00 19.8 18.5 93 0.0 19 12   100.66     LegendNANA
02:00 20.1 18.8 92 0.0 19 19   100.63 27   LegendNANA
03:00 20.0 18.7 93 0.0 19 17   100.62 27   LegendNANA
04:00 18.5 17.3 93 0.0 18 24   100.64     LegendNANA
05:00 18.2 17.3 95 0.0 17 15   100.64     LegendNANA
06:00 19.0 17.9 93 0.0 17 24   100.60     LegendNANA
07:00 20.1 18.9 93 0.0 18 11   100.60 27   LegendNANA
08:00 23.2 19.7 81 0.0 20 13   100.59 31   LegendNANA
09:00 23.4 20.3 83 0.0 19 25   100.58 31   LegendNANA
10:00 22.3 19.9 87 0.0 20 13   100.62 30   LegendNANA
11:00 22.5 20.2 87 0.0 19 17   100.59 30   LegendNANA
12:00 22.7 21.5 93 1.6 20 11   100.61 32   LegendNANA
13:00 23.0 21.6 92 0.2 20 10   100.60 32   LegendNANA
14:00 22.1 21.1 94 0.2 17 20   100.55 31   LegendNANA
15:00 21.6 20.8 95 2.8 18 21   100.54 30   LegendNANA
16:00 20.3 19.8 97 1.4 16 25   100.55 28   LegendNANA
17:00 20.5 19.8 96 0.2 17 18   100.51 28   LegendNANA
18:00 19.5 18.3 93 0.2 12 9   100.49     LegendNANA
19:00 19.9 19.3 96 0.0 19 12   100.53     LegendNANA
20:00 19.1 18.3 95 0.0 17 20   100.52     LegendNANA
21:00 17.6 17.1 97 0.0 15 16   100.57     LegendNANA
22:00 19.9 19.5 98 0.0 20 18   100.54     LegendNANA
23:00 19.7 19.2 97 0.0 17 16   100.52     LegendNANA

Notes on Data Quality.

Legend

  • E = Estimated
  • M = Missing
  • NA = Not Available*
  • [empty] = Indicates an unobserved value
Date modified: